FLOCK 2B-5

Last updated on Sun Sep 25 2016 17:45:34 GMT+0000 (Coordinated Universal Time)

1 40954U 98067HF 16269.42466140 .06846346 12214-4 59436-3 0 9994 2 40954 51.6134 224.8835 0009759 189.2144 171.2907 16.38327062 55932

Satellite not in orbit